YF1 CYXU-CYKF

Flight info

Callsign YF1
Flight time N/A
Altitude 5500
Route CYXU/33
Aircraft A350

Departure

Time 2026-04-19 16:25
Airport London International Airport (CYXU)

Arrival

Time N/A
Airport Region of Waterloo International Airport (CYKF)
Time Latitude Longitude Altitude Speed Heading
2026-04-19 16:16 43.02909 -81.14813 908 ft 0 kts 250°
2026-04-19 16:19 43.02910 -81.14808 908 ft 2 kts 247°
2026-04-19 16:19 43.02915 -81.14796 908 ft 1 kts 244°
2026-04-19 16:19 43.02921 -81.14779 908 ft 3 kts 228°
2026-04-19 16:20 43.02932 -81.14767 908 ft 3 kts 166°
2026-04-19 16:20 43.02947 -81.14780 908 ft 3 kts 134°
2026-04-19 16:20 43.02959 -81.14797 910 ft 1 kts 138°
2026-04-19 16:20 43.02961 -81.14799 908 ft 0 kts 139°
2026-04-19 16:21 43.02961 -81.14798 908 ft 0 kts 139°
2026-04-19 16:22 43.02933 -81.14766 908 ft 10 kts 139°
2026-04-19 16:22 43.02845 -81.14662 908 ft 21 kts 139°
2026-04-19 16:22 43.02723 -81.14520 908 ft 25 kts 138°
2026-04-19 16:22 43.02586 -81.14351 908 ft 28 kts 137°
2026-04-19 16:23 43.02429 -81.14157 908 ft 32 kts 138°
2026-04-19 16:23 43.02329 -81.14009 908 ft 11 kts 93°
2026-04-19 16:23 43.02335 -81.13956 908 ft 0 kts 75°
2026-04-19 16:24 43.02340 -81.13942 908 ft 6 kts 63°
2026-04-19 16:24 43.02401 -81.13859 906 ft 12 kts 20°
2026-04-19 16:25 43.02460 -81.13886 906 ft 17 kts 328°
2026-04-19 16:25 43.02823 -81.14318 910 ft 118 kts 319°
2026-04-19 16:25 43.03618 -81.15272 1205 ft 173 kts 314°
2026-04-19 16:25 43.04640 -81.16421 1748 ft 211 kts 327°
2026-04-19 16:26 43.05913 -81.17605 2401 ft 220 kts 326°
2026-04-19 16:26 43.07315 -81.18262 2881 ft 223 kts 353°
2026-04-19 16:26 43.08951 -81.18261 3380 ft 248 kts
2026-04-19 16:26 43.10611 -81.17459 3512 ft 263 kts 31°
2026-04-19 16:27 43.11801 -81.15498 3446 ft 269 kts 59°
2026-04-19 16:27 43.12593 -81.13146 3809 ft 278 kts 65°
2026-04-19 16:27 43.13363 -81.10689 4634 ft 279 kts 65°
2026-04-19 16:27 43.14134 -81.08260 5240 ft 278 kts 64°
2026-04-19 16:28 43.14908 -81.05872 5502 ft 281 kts 63°
2026-04-19 16:28 43.15710 -81.03435 5541 ft 282 kts 63°
2026-04-19 16:28 43.16525 -81.00970 5535 ft 282 kts 63°
2026-04-19 16:28 43.17339 -80.98523 5536 ft 282 kts 63°
2026-04-19 16:29 43.18149 -80.96081 5528 ft 277 kts 63°
2026-04-19 16:29 43.18916 -80.93760 5542 ft 258 kts 63°
2026-04-19 16:29 43.19646 -80.91567 5534 ft 251 kts 63°
2026-04-19 16:29 43.20372 -80.89390 5494 ft 251 kts 62°
2026-04-19 16:30 43.21099 -80.87221 5191 ft 250 kts 63°
2026-04-19 16:30 43.21816 -80.85058 4868 ft 248 kts 63°
2026-04-19 16:30 43.22520 -80.82913 4572 ft 245 kts 63°
2026-04-19 16:30 43.23227 -80.80773 4237 ft 247 kts 63°
2026-04-19 16:31 43.23930 -80.78639 3949 ft 244 kts 63°
2026-04-19 16:31 43.24626 -80.76520 3659 ft 243 kts 63°
2026-04-19 16:31 43.25322 -80.74416 3380 ft 241 kts 63°
2026-04-19 16:31 43.26013 -80.72321 3080 ft 241 kts 63°
2026-04-19 16:32 43.26703 -80.70229 3003 ft 241 kts 63°
2026-04-19 16:32 43.27395 -80.68130 3011 ft 241 kts 63°
2026-04-19 16:32 43.28081 -80.66046 3012 ft 239 kts 63°
2026-04-19 16:32 43.28764 -80.63964 3002 ft 239 kts 63°
2026-04-19 16:33 43.29422 -80.61954 3003 ft 222 kts 63°
2026-04-19 16:33 43.30021 -80.60113 3130 ft 202 kts 62°
2026-04-19 16:33 43.30586 -80.58371 3188 ft 199 kts 63°
2026-04-19 16:33 43.31152 -80.56650 3175 ft 195 kts 62°
2026-04-19 16:34 43.31687 -80.55025 3188 ft 180 kts 62°
2026-04-19 16:34 43.32199 -80.53477 3192 ft 178 kts 62°
2026-04-19 16:34 43.32705 -80.51930 3177 ft 177 kts 62°
2026-04-19 16:34 43.33209 -80.50379 3175 ft 179 kts 62°
2026-04-19 16:35 43.33715 -80.48825 3177 ft 178 kts 62°
2026-04-19 16:35 43.34227 -80.47272 3177 ft 179 kts 62°
2026-04-19 16:35 43.34738 -80.45723 3181 ft 177 kts 60°
2026-04-19 16:35 43.35247 -80.44181 3173 ft 178 kts 62°
2026-04-19 16:36 43.35751 -80.42630 3166 ft 178 kts 62°
2026-04-19 16:36 43.36254 -80.41079 3164 ft 177 kts 62°
2026-04-19 16:36 43.36757 -80.39529 3169 ft 178 kts 62°
2026-04-19 16:36 43.37260 -80.37971 3160 ft 178 kts 63°
2026-04-19 16:37 43.37760 -80.36414 3167 ft 178 kts 62°
2026-04-19 16:37 43.38266 -80.34864 3166 ft 177 kts 62°
2026-04-19 16:37 43.38771 -80.33311 3171 ft 178 kts 63°
2026-04-19 16:37 43.39286 -80.31709 3170 ft 195 kts 63°
2026-04-19 16:38 43.39870 -80.29929 3159 ft 210 kts 62°
2026-04-19 16:38 43.40465 -80.28095 3166 ft 210 kts 63°
2026-04-19 16:38 43.41056 -80.26259 3168 ft 210 kts 63°
2026-04-19 16:38 43.41644 -80.24422 3167 ft 210 kts 63°
2026-04-19 16:39 43.42229 -80.22596 3165 ft 203 kts 63°
2026-04-19 16:39 43.42775 -80.20891 3183 ft 189 kts 62°
2026-04-19 16:39 43.43302 -80.19255 3188 ft 187 kts 62°
2026-04-19 16:39 43.43836 -80.17611 3179 ft 188 kts 62°
2026-04-19 16:40 43.44378 -80.15977 3173 ft 187 kts 59°
2026-04-19 16:40 43.45115 -80.14543 3171 ft 176 kts 40°
2026-04-19 16:40 43.46030 -80.13714 3183 ft 142 kts 15°
2026-04-19 16:40 43.46922 -80.13434 3189 ft 125 kts 357°
2026-04-19 16:41 43.47768 -80.13527 3182 ft 120 kts 341°
2026-04-19 16:41 43.48541 -80.13920 3184 ft 118 kts 330°
2026-04-19 16:41 43.49285 -80.14398 3182 ft 118 kts 329°
2026-04-19 16:41 43.50030 -80.14876 3182 ft 119 kts 330°
2026-04-19 16:42 43.50775 -80.15357 3178 ft 118 kts 329°
2026-04-19 16:42 43.51462 -80.15961 3177 ft 116 kts 316°
2026-04-19 16:42 43.51980 -80.16799 3180 ft 115 kts 301°
2026-04-19 16:42 43.52292 -80.17803 3173 ft 114 kts 286°
2026-04-19 16:43 43.52373 -80.18885 3177 ft 115 kts 274°
2026-04-19 16:43 43.52198 -80.19977 3174 ft 119 kts 255°
2026-04-19 16:43 43.51846 -80.21011 3178 ft 120 kts 249°
2026-04-19 16:43 43.51489 -80.22043 3169 ft 119 kts 253°
2026-04-19 16:44 43.51154 -80.23058 3154 ft 118 kts 252°
2026-04-19 16:44 43.50809 -80.24092 3033 ft 119 kts 252°
2026-04-19 16:44 43.50461 -80.25126 2872 ft 119 kts 253°
2026-04-19 16:44 43.50116 -80.26151 2729 ft 119 kts 251°
2026-04-19 16:45 43.49767 -80.27184 2551 ft 118 kts 250°
2026-04-19 16:45 43.49427 -80.28199 2395 ft 116 kts 250°
2026-04-19 16:45 43.49088 -80.29207 2236 ft 116 kts 249°
2026-04-19 16:45 43.48746 -80.30221 2081 ft 115 kts 249°
2026-04-19 16:46 43.48399 -80.31241 1872 ft 119 kts 246°
2026-04-19 16:46 43.48051 -80.32264 1668 ft 117 kts 248°
2026-04-19 16:46 43.47704 -80.33279 1500 ft 118 kts 248°
2026-04-19 16:46 43.47355 -80.34297 1377 ft 119 kts 249°
2026-04-19 16:47 43.47013 -80.35342 1232 ft 118 kts 246°
2026-04-19 16:47 43.46676 -80.36372 1089 ft 119 kts 247°
2026-04-19 16:47 43.46347 -80.37340 1041 ft 92 kts 245°
2026-04-19 16:47 43.46167 -80.37871 1043 ft 110 kts 245°
2026-04-19 16:48 43.45657 -80.39393 1382 ft 142 kts 254°
2026-04-19 16:48 43.45920 -80.40824 1647 ft 188 kts 313°
2026-04-19 16:48 43.47296 -80.41580 1871 ft 242 kts 351°
2026-04-19 16:48 43.48914 -80.40956 2132 ft 260 kts 34°
2026-04-19 16:49 43.49994 -80.38935 2299 ft 267 kts 64°
2026-04-19 16:49 43.50773 -80.36714 2314 ft 238 kts 63°
2026-04-19 16:49 43.51226 -80.35395 2406 ft 214 kts 64°
2026-04-19 16:49 43.51803 -80.33630 2478 ft 194 kts 66°
2026-04-19 16:50 43.52297 -80.31999 2364 ft 177 kts 66°
2026-04-19 16:50 43.52741 -80.30426 2245 ft 177 kts 66°
2026-04-19 16:50 43.53196 -80.28867 2214 ft 173 kts 73°
2026-04-19 16:50 43.52943 -80.27412 2180 ft 155 kts 138°
2026-04-19 16:51 43.51910 -80.26960 1859 ft 165 kts 187°
2026-04-19 16:51 43.50794 -80.27155 1742 ft 157 kts 199°
2026-04-19 16:51 43.49821 -80.27802 1706 ft 167 kts 218°
2026-04-19 16:51 43.48885 -80.28825 1687 ft 170 kts 237°
2026-04-19 16:52 43.48571 -80.30281 1723 ft 156 kts 258°
2026-04-19 16:52 43.48236 -80.31665 1634 ft 150 kts 249°
2026-04-19 16:52 43.47813 -80.32948 1462 ft 142 kts 252°
2026-04-19 16:52 43.47428 -80.34151 1304 ft 133 kts 233°
2026-04-19 16:53 43.47017 -80.35255 1167 ft 131 kts 248°
2026-04-19 16:53 43.46659 -80.36419 1082 ft 135 kts 242°
2026-04-19 16:53 43.46286 -80.37526 1043 ft 114 kts 246°
2026-04-19 16:53 43.45890 -80.38668 1147 ft 167 kts 248°
2026-04-19 16:54 43.45348 -80.40276 1736 ft 194 kts 243°
2026-04-19 16:54 43.44679 -80.42021 2551 ft 217 kts 239°
2026-04-19 16:54 43.43752 -80.43848 3241 ft 246 kts 237°
2026-04-19 16:54 43.42664 -80.45718 4028 ft 250 kts 233°
2026-04-19 16:55 43.41300 -80.47211 4511 ft 257 kts 211°
2026-04-19 16:55 43.37699 -80.47180 4669 ft 277 kts 158°
2026-04-19 16:55 43.36056 -80.45754 4671 ft 280 kts 150°
2026-04-19 16:56 43.34280 -80.44796 4671 ft 272 kts 176°
2026-04-19 16:56 43.32449 -80.45023 4670 ft 262 kts 205°
2026-04-19 16:56 43.30908 -80.46257 4670 ft 254 kts 222°
2026-04-19 16:56 43.29532 -80.47779 4675 ft 254 kts 225°
2026-04-19 16:57 43.28213 -80.49380 4678 ft 251 kts 231°
2026-04-19 16:57 43.27182 -80.51289 4680 ft 248 kts 242°
2026-04-19 16:57 43.26296 -80.53315 4680 ft 247 kts 245°
2026-04-19 16:57 43.25502 -80.55405 4679 ft 247 kts 247°
2026-04-19 16:58 43.24717 -80.57501 4653 ft 246 kts 247°
2026-04-19 16:58 43.23941 -80.59583 4343 ft 241 kts 247°
2026-04-19 16:58 43.23199 -80.61580 4167 ft 230 kts 247°
2026-04-19 16:58 43.22467 -80.63545 3570 ft 236 kts 247°
2026-04-19 16:59 43.21716 -80.65583 3017 ft 242 kts 247°
2026-04-19 16:59 43.20970 -80.67643 2735 ft 242 kts 247°
2026-04-19 16:59 43.20226 -80.69721 2685 ft 243 kts 247°
2026-04-19 16:59 43.19484 -80.71806 2685 ft 244 kts 247°
2026-04-19 17:00 43.18753 -80.73863 2684 ft 243 kts 247°
2026-04-19 17:00 43.18000 -80.75977 2696 ft 244 kts 247°
2026-04-19 17:00 43.17273 -80.78038 2690 ft 243 kts 247°
2026-04-19 17:00 43.16523 -80.80152 2702 ft 244 kts 247°
2026-04-19 17:01 43.15789 -80.82209 2700 ft 244 kts 245°
2026-04-19 17:01 43.14824 -80.84093 2702 ft 225 kts 230°
2026-04-19 17:01 43.13693 -80.85235 2736 ft 190 kts 212°
2026-04-19 17:01 43.12519 -80.85807 2754 ft 166 kts 201°
2026-04-19 17:02 43.11502 -80.86230 2683 ft 144 kts 212°
2026-04-19 17:02 43.10698 -80.86976 2401 ft 139 kts 224°
2026-04-19 17:02 43.09941 -80.87845 1998 ft 144 kts 225°
2026-04-19 17:02 43.09204 -80.88734 1820 ft 138 kts 227°
2026-04-19 17:03 43.08485 -80.89612 1802 ft 139 kts 225°
2026-04-19 17:03 43.07765 -80.90503 1803 ft 140 kts 226°
2026-04-19 17:03 43.07038 -80.91393 1879 ft 143 kts 226°
2026-04-19 17:03 43.06278 -80.92332 2072 ft 147 kts 226°
2026-04-19 17:04 43.05537 -80.93252 2104 ft 140 kts 229°
2026-04-19 17:04 43.04833 -80.94186 2143 ft 147 kts 234°
2026-04-19 17:04 43.04118 -80.95328 2197 ft 165 kts 230°
2026-04-19 17:04 43.03373 -80.96573 2234 ft 173 kts 228°
2026-04-19 17:05 43.02610 -80.97870 2283 ft 178 kts 227°
2026-04-19 17:05 43.01829 -80.99212 2339 ft 182 kts 226°
2026-04-19 17:05 43.01042 -81.00568 2348 ft 178 kts 225°
2026-04-19 17:05 43.00271 -81.01803 2343 ft 171 kts 229°
2026-04-19 17:06 42.99476 -81.03008 2481 ft 169 kts 224°
2026-04-19 17:06 42.98837 -81.04239 2359 ft 147 kts 236°
2026-04-19 17:06 42.98330 -81.05361 2192 ft 131 kts 241°
2026-04-19 17:06 42.97857 -81.06477 2228 ft 149 kts 249°
2026-04-19 17:07 42.97771 -81.07964 2369 ft 170 kts 282°
2026-04-19 17:07 42.98377 -81.09357 2337 ft 172 kts 312°
2026-04-19 17:07 42.99382 -81.10221 2009 ft 169 kts 321°
2026-04-19 17:07 43.00256 -81.11220 1712 ft 158 kts 315°
2026-04-19 17:08 43.01060 -81.12182 1385 ft 149 kts 316°
2026-04-19 17:08 43.01825 -81.13056 1124 ft 136 kts 319°
2026-04-19 17:08 43.02496 -81.13896 939 ft 125 kts 315°
2026-04-19 17:08 43.03088 -81.14628 907 ft 96 kts 318°
2026-04-19 17:09 43.03401 -81.14997 909 ft 35 kts 320°
2026-04-19 17:09 43.03564 -81.15203 910 ft 25 kts 301°
2026-04-19 17:09 43.03528 -81.15357 908 ft 11 kts 226°
2026-04-19 17:09 43.03516 -81.15376 908 ft 0 kts 229°
2026-04-19 17:11 43.03515 -81.15377 908 ft 0 kts 229°
2026-04-19 17:11 43.03511 -81.15385 908 ft 7 kts 229°
2026-04-19 17:11 43.03474 -81.15404 908 ft 2 kts 173°
2026-04-19 17:12 43.03426 -81.15371 908 ft 15 kts 149°
2026-04-19 17:12 43.03337 -81.15256 908 ft 24 kts 135°
2026-04-19 17:12 43.03219 -81.15108 908 ft 26 kts 139°
2026-04-19 17:12 43.03085 -81.14945 908 ft 20 kts 139°
2026-04-19 17:13 43.02990 -81.14833 908 ft 15 kts 139°
2026-04-19 17:13 43.02951 -81.14840 908 ft 3 kts 227°
2026-04-19 17:13 43.02943 -81.14851 908 ft 0 kts 227°
2026-04-19 17:14 43.02942 -81.14853 908 ft 0 kts 227°